Flight Track Log - Related Links

Times and Time Zones

All times are in EST time to prevent confusion due to time zone crossing. See the FLG3757 flight status page for this flight to view local times or setup timezone preferences in your user account.

Time Position Orientation Groundspeed Altitude Reporting Facility
EST Latitude Longitude Course Direction KTS MPH feet Rate Location/Type
Mon 06:13:14 AM 42.1825 -75.9619 264° West 152 175 3,000  Level New York Center
Mon 06:14:14 AM 42.1781 -76.0178 264° West 135 155 4,800 1,750 Climbing New York Center
Mon 06:15:14 AM 42.2017 -76.0953 292° West 143 165 6,500 2,200 Climbing New York Center
Mon 06:16:14 AM 42.2267 -76.1839 291° West 193 222 9,200 2,200 Climbing New York Center
Mon 06:17:14 AM 42.2558 -76.2789 293° West 242 278 10,900 1,700 Climbing New York Center
Mon 06:18:14 AM 42.2900 -76.3908 292° West 284 327 12,600 1,787 Climbing New York Center
Mon 06:18:48 AM 42.3053 -76.4417 292° West 322 371 13,700 2,170 Climbing Cleveland Center
Mon 06:19:48 AM 42.3372 -76.5519 291° West 319 367 16,000 1,983 Climbing Cleveland Center
Mon 06:20:49 AM 42.3708 -76.6611 293° West 316 364 17,700 1,488 Climbing Cleveland Center
Mon 06:21:49 AM 42.4028 -76.7747 291° West 321 369 19,000 1,289 Climbing Cleveland Center
Mon 06:22:50 AM 42.4375 -76.8919 292° West 331 381 20,300 1,279 Climbing Cleveland Center
Mon 06:23:51 AM 42.4683 -77.0103 289° West 335 386 21,600 1,190 Climbing Cleveland Center
Mon 06:24:51 AM 42.4764 -77.1372 275° West 337 388 22,700 1,091 Climbing Cleveland Center
Mon 06:25:52 AM 42.4861 -77.2617 276° West 335 386 23,800 1,131 Climbing Cleveland Center
Mon 06:26:53 AM 42.4961 -77.3894 276° West 338 389 25,000 1,230 Climbing Cleveland Center
Mon 06:27:54 AM 42.5083 -77.5392 276° West 335 386 26,300 1,091 Climbing Cleveland Center
Mon 06:28:54 AM 42.5158 -77.6608 275° West 328 377 27,200 744 Climbing Cleveland Center
Mon 06:29:55 AM 42.5258 -77.7847 276° West 330 380 27,800 393 Climbing Cleveland Center
Mon 06:30:56 AM 42.5331 -77.8942 275° West 335 386 28,000 98 Climbing Cleveland Center
Mon 06:31:57 AM 42.5425 -78.0283 276° West 353 406 28,000  Level Cleveland Center
Mon 06:32:57 AM 42.5528 -78.1669 276° West 366 421 28,000  Level Cleveland Center
Mon 06:33:58 AM 42.5639 -78.3367 275° West 377 434 28,000  Level Cleveland Center
Mon 06:34:59 AM 42.5736 -78.4789 275° West 379 436 28,000  Level Cleveland Center
Mon 06:36:00 AM 42.5833 -78.6247 275° West 388 447 28,000  Level Cleveland Center
Mon 06:37:01 AM 42.5933 -78.7689 275° West 385 443 28,000  Level Cleveland Center
Mon 06:38:02 AM 42.6022 -78.9119 275° West 382 440 28,000  Level Cleveland Center
Mon 06:39:03 AM 42.6106 -79.0544 275° West 381 438 28,000  Level Cleveland Center
Mon 06:40:03 AM 42.6200 -79.1961 275° West 379 436 28,000  Level Cleveland Center
Mon 06:41:04 AM 42.6286 -79.3369 275° West 375 432 28,000  Level Cleveland Center
Mon 06:42:05 AM 42.6361 -79.4783 274° West 377 434 28,000  Level Cleveland Center
Mon 06:43:06 AM 42.6436 -79.6197 274° West 376 433 28,000  Level Cleveland Center
Mon 06:44:07 AM 42.6519 -79.7611 275° West 376 433 28,000  Level Cleveland Center
Mon 06:45:08 AM 42.6583 -79.9042 274° West 382 440 28,000  Level Cleveland Center
Mon 06:46:09 AM 42.6658 -80.0567 274° West 378 435 28,000  Level Cleveland Center
Mon 06:47:10 AM 42.6728 -80.2000 274° West 377 434 28,000  Level Cleveland Center
Mon 06:48:11 AM 42.6803 -80.3419 274° West 375 432 28,000  Level Cleveland Center
Mon 06:49:12 AM 42.6875 -80.4847 274° West 376 433 28,000  Level Cleveland Center
Mon 06:50:13 AM 42.6942 -80.6269 274° West 376 433 28,000  Level Cleveland Center
Mon 06:51:14 AM 42.7014 -80.7711 274° West 380 437 28,000 -295 Level Cleveland Center
Mon 06:52:15 AM 42.7042 -80.9117 272° West 374 430 27,400 -1,122 Descending Cleveland Center
Mon 06:53:17 AM 42.6869 -81.0528 261° West 376 433 25,700 -1,610 Descending Cleveland Center
Mon 06:54:18 AM 42.6714 -81.1947 262° West 377 434 24,100 -1,770 Descending Cleveland Center
Mon 06:55:19 AM 42.6519 -81.3647 261° West 387 445 22,100 -1,820 Descending Cleveland Center
Mon 06:56:20 AM 42.6361 -81.5053 261° West 378 435 20,400 -1,672 Descending Cleveland Center
Mon 06:57:21 AM 42.6200 -81.6372 261° West 358 412 18,700 -1,820 Descending Cleveland Center
Mon 06:58:22 AM 42.6042 -81.7653 261° West 345 397 16,700 -1,672 Descending Cleveland Center
Mon 06:59:23 AM 42.5925 -81.8686 261° West 331 381 15,300 -1,721 Descending Cleveland Center
Mon 07:00:24 AM 42.5739 -82.0175 260° West 335 386 13,200 -1,610 Descending Cleveland Center
Mon 07:01:26 AM 42.5592 -82.1386 261° West 328 377 12,000 -637 Descending Cleveland Center
Mon 07:02:17 AM 42.5475 -82.2458 262° West 318 366 12,000  Level Cleveland Center
Mon 07:02:27 AM 42.5456 -82.2569 257° West 321 369 12,000  Level Cleveland Center
Mon 07:03:11 AM 42.5339 -82.3517 261° West 317 365 12,000  Level Cleveland Center
Mon 07:03:28 AM 42.5303 -82.3736 257° West 317 365 12,000  Level Cleveland Center
Mon 07:04:12 AM 42.5172 -82.4742 260° West 326 375 12,000  Level Cleveland Center
Mon 07:04:29 AM 42.5156 -82.4944 264° West 322 371 12,000 -308 Level Cleveland Center
Mon 07:05:30 AM 42.4864 -82.6069 251° West 325 374 11,600 -811 Descending Cleveland Center
Mon 07:06:20 AM 42.4553 -82.6953 245° Southwest 248 285 10,500 -1,180 Descending Cleveland Center
Mon 07:06:31 AM 42.4531 -82.6994 234° Southwest 284 327 10,400 -1,475 Descending Cleveland Center
Mon 07:07:21 AM 42.4289 -82.7708 245° Southwest 216 249 9,000 -1,452 Descending Cleveland Center
Mon 07:07:33 AM 42.4272 -82.7739 234° Southwest 234 269 8,900 -1,556 Descending Cleveland Center
Mon 07:08:15 AM 42.4031 -82.8411 244° Southwest 233 268 7,600 -1,475 Descending Cleveland Center
Mon 07:08:34 AM 42.4008 -82.8517 254° West 224 258 7,400 -1,343 Descending Cleveland Center
Mon 07:09:22 AM 42.4122 -82.9439 280° West 249 287 6,100 -1,279 Descending Cleveland Center
Mon 07:09:35 AM 42.4125 -82.9461 280° West 249 287 6,100 -81 Level Cleveland Center
Mon 07:10:36 AM 42.4250 -83.0522 279° West 242 278 6,000 -574 Descending Cleveland Center
Mon 07:11:30 AM 42.4147 -83.1336 260° West 231 266 5,000 -968 Descending Cleveland Center
Mon 07:11:38 AM 42.4142 -83.1383 261° West 236 272 5,000 -609 Level Cleveland Center
Mon 07:12:39 AM 42.3872 -83.1986 239° Southwest 195 224 4,300 -934 Descending Cleveland Center
Mon 07:13:40 AM 42.3539 -83.2350 219° Southwest 180 207 3,100 -1,200 Descending Cleveland Center
Mon 07:13:44 AM 42.3478 -83.2403 213° Southwest 137 158 3,000 -102 Descending Cleveland Center
Mon 07:14:39 AM 42.3189 -83.2617 209° Southwest 129 148 3,000  Level Cleveland Center
Mon 07:14:42 AM 42.3214 -83.2586 42° Northeast 140 161 3,000 -689 Level Cleveland Center
Mon 07:15:40 AM 42.2878 -83.2856 211° Southwest 118 136 2,300 -590 Descending Cleveland Center
Mon 07:15:43 AM 42.2906 -83.2814 48° Northeast 129 148 2,400 -590 Climbing Cleveland Center
Mon 07:16:41 AM 42.2611 -83.3044 210° Southwest 106 122 1,700 -590 Descending Cleveland Center
Mon 07:16:44 AM 42.2647 -83.3019 27° Northeast 118 136 1,800 -590 Climbing Cleveland Center
Mon 07:17:42 AM 42.2325 -83.3228 206° Southwest 119 137 1,100 -677 Descending Cleveland Center
Mon 07:17:46 AM 42.2375 -83.3211 14° North 112 129 1,100 -92 Level Cleveland Center
Mon 07:18:47 AM 42.2086 -83.3425 209° Southwest 113 130 1,000 -98 Descending Cleveland Center
Mon 07:20:00 AM 42.2000 -83.3500 214° Southwest  Level FlightAware Approximate
Mon 07:27:00 AM 42.2124 -83.3534 214° Southwest  Level Estimated

Login

Don't have an account? Register now (free) for customized features, flight alerts, and more!